Metcalfe, MS

5:39 AM CDT on August 27, 2016 (GMT -0500)
Mid Delta Regional

Weather History for KGLH - November, 2013

Change the Weather History Date:

Wednesday, November 6, 2013

  Actual Average Record
Temperature  
Mean Temperature 61 °F 58 °F  
Max Temperature 72 °F 69 °F 83 °F (1924)
Min Temperature 49 °F 46 °F 28 °F (1992)
Degree Days  
Heating Degree Days 4 8  
Month to date heating degree days 40 46  
Since 1 July heating degree days 131 160  
Cooling Degree Days 0 1  
Month to date cooling degree days 1 6  
Year to date cooling degree days 2238 2180  
Growing Degree Days 10 (Base 50)    
Moisture  
Dew Point 57 °F    
Average Humidity 83    
Maximum Humidity 93    
Minimum Humidity 73    
Precipitation  
Precipitation 0.35 in 0.15 in 2.29 in (2015)
Month to date precipitation 0.35 0.86  
Year to date precipitation 45.13 42.82  
Sea Level Pressure  
Sea Level Pressure 30.12 in    
Wind  
Wind Speed 10 mph (West)    
Max Wind Speed 22 mph    
Max Gust Speed 26 mph    
Visibility 8 miles    
Events Rain    
T = Trace of Precipitation, MM = Missing Value Source: NWS Daily Summary

Daily Weather History Graph

Daily Weather History Graph

Search for Another Location

Airport or City:

Trip Planner

Search our weather history database for the weather conditions in past years. The results will help you decide how hot, cold, wet, or windy it might be!

Date:

Astronomy

Nov. 06, 2013 Rise Set
Actual Time 6:27 AM CST 5:07 PM CST
Civil Twilight 6:01 AM CST 5:33 PM CST
Nautical Twilight 5:31 AM CST 6:02 PM CST
Astronomical Twilight 5:02 AM CST 6:32 PM CST
Moon 9:38 AM CST (11/6) 8:15 PM CST (11/6)
Length of Visible Light 11h 31m
Length of Day
10h 39m
Waxing Crescent, 14% of the Moon is Illuminated
Nov 6
Waxing Crescent
Nov 9
First Quarter
Nov 17
Full
Nov 25
Last Quarter
Dec 2
New

Hourly Weather History & Observations

Time (CST) Temp. Dew Point Humidity Pressure Visibility Wind Dir Wind Speed Gust Speed Precip Events Conditions
12:53 AM 61.0 °F 54.0 °F 78% 30.13 in 10.0 mi SSE 9.2 mph - N/A   Clear
1:53 AM 60.1 °F 54.0 °F 80% 30.12 in 10.0 mi SSE 9.2 mph - N/A   Clear
2:53 AM 57.9 °F 54.0 °F 87% 30.12 in 10.0 mi SSE 6.9 mph - N/A   Clear
3:53 AM 57.0 °F 53.1 °F 87% 30.12 in 10.0 mi SSE 6.9 mph - N/A   Mostly Cloudy
4:53 AM 57.9 °F 53.1 °F 84% 30.11 in 10.0 mi SSE 8.1 mph - N/A   Clear
5:53 AM 57.9 °F 54.0 °F 87% 30.11 in 10.0 mi SE 9.2 mph - N/A   Overcast
6:53 AM 59.0 °F 53.1 °F 81% 30.12 in 10.0 mi SSE 9.2 mph - N/A   Overcast
7:53 AM 61.0 °F 54.0 °F 78% 30.12 in 10.0 mi SSE 9.2 mph - N/A   Overcast
8:53 AM 62.1 °F 55.0 °F 78% 30.12 in 10.0 mi SSE 11.5 mph - N/A   Overcast
9:53 AM 64.9 °F 57.0 °F 75% 30.12 in 10.0 mi South 10.4 mph - N/A   Overcast
10:53 AM 68.0 °F 60.1 °F 76% 30.11 in 10.0 mi South 9.2 mph - N/A   Overcast
11:53 AM 70.0 °F 62.1 °F 76% 30.09 in 10.0 mi South 8.1 mph - N/A   Overcast
12:53 PM 71.1 °F 63.0 °F 75% 30.06 in 10.0 mi SSW 6.9 mph - 0.00 in   Overcast
1:53 PM 70.0 °F 64.9 °F 84% 30.06 in 9.0 mi SSW 6.9 mph - 0.02 in Rain Light Rain
2:09 PM 69.8 °F 66.2 °F 88% 30.04 in 9.0 mi SSW 5.8 mph - 0.00 in Rain Light Rain
2:33 PM 69.8 °F 66.2 °F 88% 30.04 in 9.0 mi SSW 5.8 mph - 0.00 in Rain Light Rain
2:47 PM 69.8 °F 66.2 °F 88% 30.04 in 2.5 mi South 5.8 mph - 0.01 in Rain Rain
2:53 PM 69.1 °F 66.9 °F 93% 30.05 in 2.5 mi South 5.8 mph - 0.02 in Rain Light Rain
3:02 PM 69.8 °F 66.2 °F 88% 30.03 in 4.0 mi SSW 8.1 mph - 0.01 in Rain Light Rain
3:53 PM 70.0 °F 66.9 °F 90% 30.06 in 10.0 mi Calm Calm - 0.01 in Rain Light Rain
4:07 PM 69.8 °F 66.2 °F 88% 30.04 in 2.0 mi North 3.5 mph - 0.03 in Rain Rain
4:17 PM 68.0 °F 66.2 °F 94% 30.06 in 1.8 mi NNW 11.5 mph - 0.08 in Rain Heavy Rain
4:31 PM 66.2 °F 64.4 °F 94% 30.05 in 2.0 mi Calm Calm - 0.16 in Rain Light Rain
4:40 PM 66.2 °F 64.4 °F 94% 30.06 in 9.0 mi WNW 3.5 mph - 0.16 in Rain Light Rain
4:53 PM 66.0 °F 64.0 °F 93% 30.07 in 8.0 mi NW 3.5 mph - 0.16 in Rain Light Rain
5:53 PM 64.9 °F 62.1 °F 90% 30.10 in 5.0 mi WSW 3.5 mph - 0.08 in Rain Rain
6:22 PM 64.4 °F 62.6 °F 94% 30.07 in 9.0 mi Variable 3.5 mph - 0.01 in Rain Light Rain
6:32 PM 64.4 °F 62.6 °F 94% 30.08 in 4.0 mi NW 12.7 mph 16.1 mph 0.04 in Rain Heavy Rain
6:53 PM 62.1 °F 59.0 °F 90% 30.14 in 10.0 mi NW 17.3 mph 23.0 mph 0.05 in   Overcast
7:53 PM 57.9 °F 55.9 °F 93% 30.16 in 10.0 mi NNW 20.7 mph 26.5 mph 0.01 in   Overcast
8:09 PM 57.2 °F 53.6 °F 88% 30.15 in 10.0 mi NNW 16.1 mph 24.2 mph N/A   Overcast
8:41 PM 57.2 °F 53.6 °F 88% 30.17 in 10.0 mi NNW 18.4 mph - N/A   Overcast
8:53 PM 55.9 °F 52.0 °F 87% 30.19 in 10.0 mi NNW 16.1 mph - 0.00 in Rain Light Rain
9:19 PM 55.4 °F 53.6 °F 94% 30.19 in 4.0 mi North 12.7 mph - 0.00 in Rain Light Rain
9:40 PM 53.6 °F 50.0 °F 88% 30.20 in 10.0 mi North 17.3 mph 26.5 mph 0.00 in   Overcast
9:53 PM 53.1 °F 48.0 °F 83% 30.23 in 10.0 mi North 19.6 mph 25.3 mph 0.00 in   Overcast
10:28 PM 51.8 °F 48.2 °F 88% 30.22 in 10.0 mi North 18.4 mph 23.0 mph N/A   Overcast
10:53 PM 51.1 °F 46.0 °F 83% 30.26 in 10.0 mi North 18.4 mph 26.5 mph N/A   Overcast
11:00 PM 51.8 °F 46.4 °F 82% 30.23 in 10.0 mi North 15.0 mph 24.2 mph N/A   Overcast
11:10 PM 50.0 °F 46.4 °F 87% 30.23 in 10.0 mi NNW 16.1 mph - N/A   Overcast
11:46 PM 48.2 °F 44.6 °F 87% 30.25 in 10.0 mi NNW 12.7 mph 23.0 mph N/A   Overcast
11:53 PM 48.9 °F 44.1 °F 83% 30.27 in 10.0 mi North 17.3 mph 21.9 mph N/A   Overcast